Regional Weather Roundup
Issued by NWS Jackson, KY

Home | Current Version | Previous Version | Graphics & Text | Print | Product List | Glossary On
Versions: 1 2 3 4 5 6 7 8 9 10 11 12 13 14 15 16 17 18 19 20 21 22 23 24 25 26 27 28 29 30 31 32 33 34 35 36 37 38 39 40 41 42 43 44 45 46 47 48 49 50
000
ASUS43 KJKL 281710
RWRJKL

EAST KENTUCKY HOURLY WEATHER ROUNDUP
NATIONAL WEATHER SERVICE JACKSON KY
100 PM EDT THU MAY 28 2015

NOTE: "FAIR" INDICATES FEW OR NO CLOUDS BELOW 12,000 FEET WITH
NO SIGNIFICANT WEATHER AND/OR OBSTRUCTIONS TO VISIBILITY.

* THESE REPORTS ARE NOT UNDER NWS QUALITY CONTROL AND MAY NOT
  REPORT WEATHER SUCH AS PRECIPITATION AND FOG.

KYZ079-080-083-085-087-088-110-112-115-119-120-281800
...EASTERN KENTUCKY...

CITY           SKY/WX    TMP DP  RH WIND       PRES   REMARKS
JACKSON        CLOUDY    76  63  64 CALM      30.26S
LONDON         LGT RAIN  73  61  65 CALM      30.26S
SOMERSET*      DRIZZLE   70  63  78 CALM      30.26S
MONTICELLO*    CLOUDY    74  67  78 CALM      30.27S
MIDDLESBORO*   LGT RAIN  75  66  73 CALM      30.25S
HARLAN APT*    PTSUNNY   79  57  47 MISG      30.25F
HAZARD APT*    MOSUNNY   79  63  57 CALM      30.25F
BLACK MTN*       N/A     68  63  83 NW1         N/A
PIKEVILLE APT* MOSUNNY   75  64  69 CALM      30.26F
BIG SANDY*     CLOUDY    77  65  65 E3        30.25F
MOREHEAD APT*  PTSUNNY   77  66  69 SW5       30.27S
$$

KYZ035-036-041-042-044-050-067-078-099-281800
...CENTRAL KENTUCKY...

CITY           SKY/WX    TMP DP  RH WIND       PRES   REMARKS
MT STERLING*   CLOUDY    73  66  78 CALM      30.26S
FLEMING/MASON* MOSUNNY   77  66  69 SE5       30.25S
DANVILLE*      PTSUNNY   73  64  73 SW3       30.25F
RICHMOND*      PTSUNNY   75  64  69 SW5       30.24F
LEXINGTON      PTSUNNY   76  66  71 VRB6      30.23F
FRANKFORT        N/A    N/A N/A N/A MISG      30.22F
$$

KYZ091>093-OHZ055-061-077-WVZ005-015-034-035-042-281800
...SOUTHERN OHIO/WEST VIRGINIA...

CITY           SKY/WX    TMP DP  RH WIND       PRES   REMARKS
COVINGTON      PTSUNNY   77  67  71 E3        30.23S
COLUMBUS       PTSUNNY   79  64  60 SE7       30.23F
DAYTON         MOSUNNY   79  66  64 S7        30.24F
WILMINGTON     MOSUNNY   77  64  64 SE8       30.23F
HUNTINGTON     MOSUNNY   78  61  55 CALM      30.23F
CHARLESTON     PTSUNNY   81  62  52 W3        30.23F
PINEVILLE*       N/A     77  64  63 MISG      30.32F
BECKLEY        CLOUDY    72  58  61 NE5       30.31F
BLUEFIELD      CLOUDY    77  61  57 NE7       30.32F
$$

VAZ002-007-008-TNZ017-027-036-066-071-281800
...SOUTHWEST VIRGINIA/EAST TENNESSEE...

CITY           SKY/WX    TMP DP  RH WIND       PRES   REMARKS
WISE*          RAIN      72  59  64 S8        30.33R
JONESVILLE*    PTSUNNY   81  63  54 CALM      30.26F
ABINGDON*      MOSUNNY   81  62  52 CALM      30.28S
BRISTOL        PTSUNNY   81  61  50 VRB5      30.25F
KNOXVILLE      LGT RAIN  79  61  53 NW7       30.22S
OAK RIDGE      CLOUDY    78  66  66 CALM      30.25S
CROSSVILLE     CLOUDY    70  63  78 SE3       30.28F
NASHVILLE      PTSUNNY   77  66  68 SE7       30.21F
$$

...KEY TO REMARKS...
VSB - VISIBILITY IN MILES
WCI - WIND CHILL INDEX
HX  - HEAT INDEX

$$



USA.gov is the U.S. government's official web portal to all federal, state and local government web resources and services.